{"data":{"norad_id":65134,"epoch":"2026-05-25T00:48:05.469696Z","epoch_age_seconds":65362,"freshness":"FRESH","line1":"1 65134U 25171C   26145.03339664  .00001903  00000+0  27857-3 0  9991","line2":"2 65134  51.8960 168.0419 0000461  78.4843 281.6171 14.79937443 44379","mean_motion":14.79937443,"eccentricity":4.61e-5,"inclination_deg":51.896,"raan_deg":168.0419,"arg_perigee_deg":78.4843,"mean_anomaly_deg":281.6171,"bstar":0.00027857,"rev_number":4437,"period_min":97.301410056965,"perigee_km":629.19855069843,"apogee_km":629.84465682169,"semimajor_km":7007.6586037601,"source":"CELESTRAK","updated_at":"2026-05-25T13:38:05.162705Z"}}